Location: S�tio Afonso Gruber
(26.1760°S, 49.5250°W)
Time: 01:29:05
(UTC+00:00)

CZ-4 R/B - Pass Details

Date: 07 June 2020
Orbit: 531 x 598 km, 97.8° (Epoch: 13 July)

Event Time Altitude Azimuth Distance (km) Brightness Sun altitude
Rises 09:22:54 0° 35° (NE) 2,665 5.9 -8.6°
Reaches altitude 10° 09:25:12 10° 47° (NE) 1,782 5.2 -8.1°
Maximum altitude 09:28:29 28° 106° (ESE) 1,039 3.4 -7.5°
Drops below altitude 10° 09:31:49 10° 165° (SSE) 1,808 3.9 -6.8°
Sets 09:34:10 0° 177° (S) 2,713 4.7 -6.3°
